Temperature
17 17 17 17 17 17 17 17 17 17 17 17 17 17 17 17 17 17 16 16 16 16 16 16 16 16 16 16 16 16 15 15 15 15 15 15 15 15 15 15 14 15 15
17 17 17 17 17 17 17 17 17 17 17 17 17 17 17 17 16 16 16 16 16 16 16 16 16 15 15 15 15 15 15 15 15 15 15 15 15 15 15 15 15 15 15
16 17 17 17 17 17 17 17 17 16 16 16 16 16 16 16 16 16 16 16 16 16 15 15 16 16 15 15 15 15 15 15 15 15 15 14 15 15 15 15 15 15 14
16 17 17 17 17 17 17 16 16 16 16 16 16 16 16 16 16 16 16 16 16 15 15 15 16 15 15 15 15 15 15 15 15 14 14 14 14 15 15 15 15 15 15
16 16 16 16 16 17 16 16 16 16 16 16 16 16 16 16 16 16 16 16 15 16 15 15 15 15 15 15 15 15 15 15 14 14 14 14 14 14 15 15 15 14 14
16 16 16 16 16 16 16 16 16 16 16 16 16 16 16 16 16 16 16 15 15 15 15 15 15 15 15 15 15 15 15 15 14 14 14 14 14 14 15 14 14 14 14
16 16 16 16 16 16 16 16 16 16 16 16 16 16 16 16 16 16 16 15 15 15 15 15 15 15 15 15 15 15 15 15 14 14 14 14 14 14 14 14 14 14 14
15 15 15 15 16 16 16 16 16 16 16 16 16 16 16 15 16 16 16 15 15 15 15 15 15 15 15 15 15 15 15 15 14 14 14 14 14 14 14 15 14 14 14
15 15 15 15 15 15 15 15 15 15 15 15 15 15 15 15 15 15 15 15 15 15 15 15 15 15 15 15 15 15 15 15 14 14 14 14 14 14 14 14 14 14 14
15 15 15 15 15 15 15 15 15 15 15 15 15 15 15 15 15 15 15 15 15 15 15 15 15 15 15 15 15 15 15 14 14 14 14 14 14 14 14 14 14 14 14
14 14 14 14 15 15 15 15 15 15 15 15 15 15 15 15 15 15 15 15 15 15 15 15 15 15 15 15 15 14 14 14 14 14 14 14 14 14 14 14 14 14 14
14 14 14 14 14 14 14 14 15 15 15 15 15 15 15 15 15 15 15 15 15 15 14 14 14 14 14 14 14 14 14 14 14 14 14 14 14 14 14 14 14 14 14
14 14 14 14 14 14 14 14 14 14 14 14 14 14 14 14 14 14 14 14 14 14 14 14 14 14 14 14 14 14 14 14 14 14 14 14 14 14 14 14 14 14 14
13 14 14 14 14 14 14 14 14 14 14 14 14 14 14 14 14 14 14 14 14 14 14 14 14 14 14 13 13 14 14 14 14 14 14 14 14 14 14 14 14 14 14
13 13 13 14 14 14 14 14 14 14 14 14 14 14 14 14 14 14 13 13 13 13 13 13 13 13 13 13 13 13 13 13 14 14 14 14 14 14 14 14 14 14 14
12 13 13 13 13 13 13 13 13 13 13 13 13 13 13 13 13 13 13 13 13 13 13 13 13 13 13 13 13 13 13 13 13 13 13 13 14 14 14 14 14 14 14
12 12 12 12 13 13 13 13 13 13 13 13 13 12 12 13 13 13 13 12 12 12 12 13 13 13 13 13 13 13 13 13 13 13 13 13 13 13 13 13 13 13 13
12 12 12 12 12 12 12 12 12 12 12 12 12 12 12 12 12 12 12 12 12 12 12 12 12 12 12 12 12 13 13 13 13 13 13 13 13 13 13 13 13 13 13
11 12 12 12 12 12 12 12 12 11 11 11 11 11 11 11 11 11 11 12 12 12 12 12 12 12 12 12 12 12 12 12 12 13 13 13 13 13 13 13 13 13 13
11 11 11 12 11 11 11 11 11 11 11 11 11 11 11 11 11 11 11 11 11 11 11 11 11 11 11 11 11 11 12 12 12 12 12 12 12 12 12 12 12 12 12
11 11 11 11 11 11 11 11 11 11 11 11 10 10 10 11 11 11 11 11 11 10 10 10 10 11 11 11 11 11 11 11 12 12 12 12 12 12 12 12 12 12 12
10 11 11 10 10 10 10 10 10 10 10 10 10 10 10 10 10 10 10 10 10 10 10 10 10 10 10 10 10 10 10 10 11 11 11 11 11 11 11 11 11 11 11
10 10 10 10 10 10 10 10 10 10 10 10 10 10 10 10 10 10 10 10 10 10 10 10 10 10 10 10 9 9 9 9 10 10 11 11 11 11 11 11 11 11 11
10 10 10 10 10 10 10 10 10 9 9 9 9 9 9 9 9 10 9 9 9 9 9 9 9 9 9 9 9 9 9 9 9 9 10 10 10 10 10 10 10 10 10
10 10 10 10 9 9 9 9 9 9 9 9 9 9 9 9 9 9 9 9 9 9 9 9 9 9 9 9 9 8 8 8 8 8 8 9 9 9 9 9 9 10 10
9 9 9 9 9 9 9 9 9 9 8 8 8 8 8 8 8 8 8 8 8 8 8 8 8 8 8 8 8 8 8 8 8 8 8 8 8 9 9 9 9 9 9
Wind_Speed
7 10 11 11 10 9 9 10 9 9 8 8 7 7 7 7 7 7 6 6 6 6 7 7 6 7 7 8 8 8 9 9 9 10 10 10 10 10 9 9 8 10 11
8 11 12 11 10 9 9 9 9 8 8 7 7 6 6 6 6 6 5 5 6 6 6 6 6 6 7 7 7 7 7 6 7 7 8 10 9 9 9 10 10 9 9
9 11 11 11 10 9 9 9 9 8 7 6 6 6 6 5 5 5 4 4 5 5 5 5 5 5 6 6 6 6 5 4 3 3 3 6 8 7 7 8 8 8 8
9 10 10 11 10 9 9 8 8 8 7 6 6 5 5 5 5 4 4 4 4 4 4 5 5 5 5 5 5 4 3 2 2 3 2 6 7 6 6 6 6 6 6
9 10 11 11 10 9 8 8 7 7 6 5 5 4 4 4 4 3 3 3 3 4 4 4 4 4 5 5 5 4 3 3 4 5 0 5 8 6 5 4 4 5 5
8 11 11 11 10 9 8 7 7 6 5 4 4 3 3 3 3 3 3 3 4 4 4 4 4 4 5 5 5 4 4 5 6 5 2 5 8 6 5 4 4 4 3
7 10 10 11 10 8 7 6 6 5 4 4 3 3 3 3 3 3 3 3 4 4 4 4 4 5 5 5 5 5 5 6 7 3 3 5 7 6 5 4 3 3 2
7 9 9 9 9 8 6 5 4 3 3 3 3 3 3 3 3 3 4 4 4 4 4 4 4 5 6 6 6 6 7 8 7 4 4 6 7 6 4 4 3 3 2
7 7 6 6 7 7 6 5 4 3 2 2 2 2 3 4 4 5 5 5 5 5 5 5 6 6 6 7 7 7 8 9 9 6 4 6 8 7 5 5 4 4 4
6 5 5 5 5 4 4 4 3 2 2 2 3 4 4 5 6 7 7 6 6 6 6 7 7 7 8 8 9 9 10 10 10 8 4 6 9 8 7 6 6 6 5
6 5 5 5 5 4 2 2 2 2 3 3 3 4 5 5 5 6 7 7 7 7 8 8 8 9 9 10 11 12 11 11 9 7 5 7 9 9 8 8 8 7 6
5 5 4 4 5 5 3 2 1 1 1 2 2 3 4 4 4 4 6 8 9 9 9 9 10 10 10 9 11 13 11 13 10 7 7 9 10 9 9 9 8 8 8
5 5 5 4 5 5 4 3 3 3 2 3 2 2 3 3 2 2 2 4 6 8 8 8 9 9 10 10 9 10 12 11 8 7 8 10 10 11 11 10 10 9 9
5 5 5 5 4 4 5 4 3 3 3 3 3 4 3 1 2 1 1 3 4 5 5 5 6 9 10 10 9 9 10 8 7 7 8 12 12 11 12 12 11 11 11
5 5 4 4 4 4 3 3 3 3 3 4 4 4 4 2 2 2 2 2 3 4 4 4 5 6 6 7 7 7 6 8 8 7 7 12 14 13 13 13 13 13 12
4 4 4 4 4 4 3 2 3 4 4 4 4 4 4 3 3 2 2 2 3 4 4 4 5 4 4 4 5 5 6 6 6 7 7 9 13 14 14 14 14 14 13
3 3 4 3 4 4 4 3 3 3 4 3 4 5 4 4 3 3 2 2 3 4 4 4 4 4 4 4 5 5 4 5 5 5 6 7 9 13 14 14 14 14 14
3 3 4 4 4 4 4 3 3 3 3 3 4 4 5 5 5 3 3 3 3 3 2 3 3 3 4 3 3 4 4 3 4 5 5 6 7 8 11 14 15 14 14
3 3 2 3 3 4 3 3 3 3 3 3 3 4 5 6 6 5 3 3 4 2 2 3 3 2 3 4 4 4 4 4 4 5 5 6 6 7 8 12 15 16 15
2 2 2 3 3 3 3 3 2 3 3 4 4 4 5 6 6 5 4 4 4 3 3 3 3 3 3 3 4 5 4 5 5 5 6 5 5 7 7 8 9 12 14
2 1 2 2 2 3 2 3 2 2 3 3 3 5 5 5 6 5 4 4 3 3 3 4 3 3 3 2 3 4 5 5 5 5 4 3 4 5 6 7 6 7 8
2 1 1 2 2 2 2 1 1 2 2 2 2 4 5 5 5 4 4 4 4 4 4 4 3 2 3 2 2 3 3 4 3 4 3 3 4 3 4 5 5 5 5
2 1 1 2 2 2 2 2 2 2 2 2 2 2 3 4 4 4 4 4 4 3 3 3 3 3 3 3 2 2 2 3 3 3 3 3 2 2 2 3 3 4 4
2 2 0 1 1 1 2 2 3 2 2 3 2 2 3 4 4 4 4 4 3 3 4 4 3 3 3 3 3 3 3 2 2 3 3 3 3 3 3 2 1 0 0
3 2 1 0 1 1 1 2 2 3 2 2 3 3 3 3 3 4 4 4 3 3 3 4 4 3 2 2 2 2 3 3 3 3 4 4 3 2 2 1 0 0 1
3 3 1 1 1 1 1 2 2 3 3 3 3 3 3 2 2 3 4 4 3 3 3 4 3 3 2 2 2 2 2 2 2 3 4 4 4 3 3 2 1 1 0
Wind_Direction
109 117 125 124 121 115 115 119 120 122 122 122 121 119 116 112 113 114 114 111 111 111 111 109 104 96 93 90 87 84 83 84 85 84 83 82 79 77 70 63 77 78 77
112 117 122 122 123 119 118 119 120 122 124 125 126 123 121 121 120 122 122 117 118 119 114 114 109 102 100 98 93 91 94 95 98 102 98 91 84 78 71 66 74 82 82
107 113 120 118 121 120 118 119 120 122 124 127 128 125 123 126 129 128 127 125 127 125 117 115 112 113 113 111 106 103 106 111 116 140 156 127 105 91 83 78 80 83 83
103 109 115 117 116 116 118 120 121 122 121 125 131 133 131 131 132 132 130 128 128 132 129 125 121 123 126 128 127 125 132 162 222 261 208 148 121 108 101 91 90 91 90
94 101 105 115 115 113 115 117 120 124 125 124 129 137 142 144 143 141 137 130 128 132 141 142 140 139 140 143 147 153 182 229 262 270 193 112 115 120 117 106 101 105 100
89 94 102 106 113 113 113 117 119 123 129 133 138 143 150 156 163 163 161 149 140 140 151 161 163 165 165 164 172 187 223 254 272 266 182 121 121 132 129 119 109 110 115
88 92 104 101 103 106 109 114 119 126 136 143 150 158 172 184 186 183 179 171 163 163 173 181 187 186 188 190 197 210 234 259 267 255 141 120 129 141 142 140 140 137 118
87 93 101 104 103 98 95 104 114 127 142 159 166 178 189 195 201 201 195 191 188 190 194 200 204 205 206 209 213 221 236 257 271 251 167 144 148 157 167 177 179 182 177
72 81 89 99 105 104 98 94 100 130 148 167 188 199 209 211 211 214 213 210 209 210 211 216 219 218 218 222 225 229 237 252 269 264 214 161 165 177 191 198 204 208 212
67 69 67 74 78 91 105 110 114 137 162 197 215 218 222 225 223 220 221 221 219 218 220 225 227 227 227 229 231 233 239 251 255 250 225 181 179 191 203 211 218 220 223
67 60 59 50 46 42 56 97 152 187 198 218 224 221 226 234 231 226 222 219 222 223 226 230 232 231 231 233 234 233 237 244 241 229 210 192 192 202 213 217 222 226 228
65 55 49 50 37 25 15 20 353 279 249 251 243 225 235 250 248 245 229 221 226 228 231 233 234 233 232 230 233 232 235 241 234 222 204 193 200 208 215 219 223 229 233
68 55 38 37 35 24 9 5 358 342 319 288 291 276 275 269 261 265 235 224 229 231 230 235 232 232 232 229 222 223 231 239 232 219 204 198 204 213 216 219 225 231 235
68 59 39 28 30 23 15 357 351 348 348 340 337 329 324 333 298 279 247 236 232 237 232 223 228 236 240 239 225 224 227 235 235 215 206 200 205 214 219 223 229 232 234
66 57 49 28 18 14 14 346 355 349 349 336 335 324 326 330 306 302 275 261 253 254 246 233 240 242 243 249 241 240 236 232 232 219 211 205 206 211 219 225 230 234 236
67 54 46 35 18 7 9 358 351 347 341 331 332 325 319 311 313 307 293 283 274 270 264 256 254 253 248 249 253 253 254 250 236 226 217 209 210 214 220 226 233 237 239
67 51 39 33 20 6 4 358 354 339 335 335 328 326 328 319 314 311 289 286 285 286 286 282 279 278 263 260 262 261 257 262 257 246 233 214 213 218 220 227 234 236 239
75 58 35 21 14 3 360 354 347 342 348 338 332 333 333 330 327 317 297 284 296 290 291 280 274 280 277 273 272 273 267 263 266 263 255 239 219 217 220 226 230 233 238
76 62 46 28 11 1 351 339 336 347 354 344 342 348 346 341 337 333 314 315 311 302 284 285 289 285 281 277 273 270 269 265 259 263 258 247 233 226 219 222 223 228 233
91 55 37 31 14 5 354 346 349 359 354 354 359 360 353 346 344 339 321 313 314 294 287 281 279 282 274 275 285 279 268 260 255 247 249 245 235 236 235 229 220 226 228
132 85 34 28 13 15 9 357 350 350 339 340 351 358 353 346 344 337 322 313 306 283 279 284 280 283 277 291 292 292 277 261 254 246 240 239 241 239 238 236 226 218 221
146 104 33 22 11 11 19 356 306 305 312 317 336 343 339 339 337 330 329 315 310 299 293 285 286 287 279 265 259 289 288 287 277 264 249 238 246 248 245 242 235 226 217
152 123 36 7 6 10 1 346 334 324 311 323 323 318 324 332 335 336 328 318 312 309 299 289 281 267 274 266 241 231 257 262 308 279 269 267 273 272 264 254 242 233 224
154 124 103 332 345 347 351 342 326 313 306 303 306 302 315 333 338 331 322 315 309 306 301 294 289 270 266 270 270 252 256 265 278 298 296 284 282 275 272 279 288 332 287
139 139 167 262 301 313 324 315 310 307 301 311 321 318 319 325 328 335 330 318 306 304 309 308 306 297 275 264 263 275 275 282 265 254 281 292 293 288 292 273 277 279 1
141 145 164 232 265 278 278 283 287 292 299 310 313 316 317 314 312 331 329 322 317 310 302 297 296 301 291 279 273 267 262 260 268 256 262 280 279 281 292 278 263 228 299
Height
1520 1521 1523 1524 1526 1528 1529 1531 1532 1533 1535 1535 1536 1537 1537 1538 1538 1539 1539 1540 1540 1541 1541 1541 1541 1541 1542 1542 1542 1542 1543 1543 1543 1544 1544 1544 1544 1544 1544 1544 1544 1544 1544
1519 1521 1523 1524 1526 1528 1530 1531 1533 1534 1535 1536 1537 1537 1538 1539 1539 1540 1540 1541 1541 1541 1542 1542 1542 1542 1542 1543 1543 1543 1544 1544 1544 1545 1545 1545 1545 1545 1545 1545 1545 1545 1545
1519 1520 1523 1525 1526 1528 1530 1531 1533 1534 1535 1536 1537 1538 1539 1539 1540 1540 1541 1541 1542 1542 1542 1542 1543 1543 1543 1543 1544 1544 1545 1545 1545 1546 1546 1546 1546 1546 1546 1546 1546 1546 1546
1519 1521 1523 1524 1526 1528 1530 1531 1533 1534 1535 1537 1537 1538 1539 1540 1540 1541 1541 1542 1542 1542 1543 1543 1543 1543 1544 1544 1544 1545 1545 1546 1546 1546 1547 1546 1546 1547 1546 1546 1546 1546 1546
1520 1521 1523 1525 1526 1528 1530 1531 1533 1534 1535 1537 1538 1538 1539 1540 1540 1541 1541 1542 1542 1542 1543 1543 1543 1543 1544 1544 1545 1545 1546 1546 1547 1547 1547 1547 1547 1547 1547 1547 1547 1547 1547
1520 1521 1523 1525 1526 1528 1530 1531 1533 1534 1535 1536 1537 1538 1539 1539 1540 1541 1541 1542 1542 1542 1542 1543 1543 1543 1544 1544 1544 1545 1546 1546 1546 1547 1547 1547 1547 1546 1546 1546 1546 1547 1547
1520 1522 1523 1525 1526 1528 1529 1531 1532 1533 1534 1536 1537 1538 1538 1539 1540 1540 1540 1541 1541 1542 1542 1542 1543 1543 1543 1544 1544 1544 1545 1545 1546 1546 1547 1546 1546 1546 1546 1546 1546 1546 1546
1521 1522 1523 1525 1526 1528 1529 1530 1531 1533 1534 1535 1536 1537 1537 1538 1539 1539 1540 1540 1540 1541 1541 1542 1542 1542 1542 1543 1543 1544 1544 1544 1545 1545 1546 1546 1546 1546 1545 1545 1545 1545 1546
1521 1522 1523 1525 1526 1527 1528 1529 1531 1532 1533 1534 1535 1536 1536 1537 1537 1538 1538 1539 1539 1539 1540 1540 1541 1541 1541 1542 1542 1542 1543 1543 1544 1544 1544 1544 1545 1545 1544 1544 1544 1544 1544
1521 1522 1523 1524 1525 1526 1527 1529 1530 1531 1532 1533 1534 1534 1535 1535 1536 1537 1537 1537 1538 1538 1538 1539 1539 1539 1540 1540 1540 1541 1541 1542 1542 1543 1543 1543 1543 1543 1543 1543 1543 1543 1543
1521 1522 1523 1524 1525 1526 1527 1527 1528 1529 1530 1531 1532 1533 1533 1534 1534 1535 1535 1535 1536 1536 1536 1537 1537 1537 1537 1538 1538 1539 1539 1540 1541 1541 1541 1541 1541 1541 1541 1541 1541 1541 1541
1521 1522 1523 1523 1524 1525 1526 1526 1527 1528 1529 1529 1530 1531 1531 1532 1532 1533 1533 1533 1533 1534 1534 1534 1535 1535 1535 1535 1536 1537 1537 1538 1538 1538 1539 1539 1539 1539 1539 1539 1540 1540 1540
1520 1521 1522 1523 1523 1524 1524 1525 1525 1526 1527 1528 1528 1529 1529 1530 1530 1530 1530 1530 1531 1531 1531 1532 1532 1532 1533 1533 1533 1534 1534 1535 1536 1536 1536 1536 1537 1537 1537 1537 1537 1537 1537
1520 1520 1521 1522 1522 1522 1523 1523 1524 1524 1525 1525 1526 1526 1527 1527 1527 1527 1527 1528 1528 1528 1529 1529 1529 1530 1530 1531 1531 1531 1532 1532 1533 1533 1533 1533 1534 1534 1534 1534 1534 1534 1534
1519 1520 1520 1521 1521 1521 1521 1521 1522 1522 1523 1523 1524 1524 1524 1524 1525 1525 1525 1525 1525 1526 1526 1526 1526 1527 1527 1527 1528 1529 1529 1529 1529 1530 1530 1530 1530 1530 1531 1530 1531 1531 1531
1518 1519 1519 1519 1519 1520 1519 1519 1520 1520 1520 1521 1521 1521 1521 1522 1522 1522 1522 1522 1522 1523 1523 1523 1523 1524 1524 1524 1525 1525 1525 1526 1525 1526 1526 1526 1526 1526 1527 1527 1527 1527 1527
1518 1518 1518 1518 1518 1518 1518 1518 1518 1518 1518 1518 1519 1519 1519 1519 1519 1519 1519 1519 1519 1519 1520 1520 1520 1520 1520 1520 1521 1521 1521 1522 1522 1522 1522 1522 1522 1522 1522 1522 1522 1522 1523
1516 1517 1517 1517 1517 1517 1516 1516 1516 1516 1516 1516 1516 1516 1516 1516 1516 1516 1516 1516 1516 1516 1516 1516 1516 1516 1516 1516 1516 1516 1516 1517 1517 1517 1517 1518 1517 1517 1517 1518 1518 1518 1518
1515 1516 1516 1516 1515 1515 1515 1515 1514 1514 1514 1514 1514 1514 1513 1513 1513 1513 1513 1513 1513 1513 1513 1513 1513 1513 1512 1512 1512 1512 1512 1512 1512 1512 1512 1513 1513 1513 1513 1513 1513 1513 1513
1514 1514 1514 1514 1514 1514 1513 1513 1513 1512 1512 1512 1512 1511 1511 1510 1510 1510 1510 1510 1509 1509 1509 1509 1509 1509 1509 1508 1507 1507 1507 1507 1507 1507 1507 1507 1508 1508 1508 1508 1508 1508 1508
1512 1513 1513 1512 1512 1512 1512 1511 1511 1510 1510 1510 1509 1509 1508 1508 1507 1507 1506 1506 1506 1506 1506 1506 1506 1506 1505 1505 1504 1502 1502 1502 1502 1502 1502 1502 1503 1503 1503 1503 1503 1503 1503
1511 1511 1511 1511 1511 1510 1510 1509 1509 1509 1508 1508 1507 1506 1506 1505 1505 1504 1503 1503 1503 1502 1502 1502 1502 1502 1501 1502 1502 1500 1498 1497 1497 1497 1498 1497 1498 1498 1498 1498 1498 1498 1498
1509 1509 1509 1509 1509 1508 1508 1507 1507 1506 1506 1505 1504 1504 1503 1503 1502 1501 1501 1500 1499 1499 1498 1498 1498 1498 1498 1498 1498 1499 1497 1494 1493 1493 1493 1493 1493 1493 1493 1493 1493 1492 1492
1506 1507 1507 1507 1506 1506 1505 1505 1505 1504 1503 1503 1502 1501 1500 1500 1499 1498 1498 1497 1496 1495 1495 1495 1495 1494 1494 1494 1494 1494 1495 1493 1492 1489 1489 1489 1489 1488 1489 1488 1488 1487 1487
1504 1505 1505 1504 1504 1504 1503 1503 1502 1502 1501 1500 1500 1499 1498 1497 1496 1495 1494 1493 1492 1492 1491 1491 1491 1491 1490 1490 1490 1490 1490 1490 1489 1488 1486 1485 1485 1484 1484 1484 1483 1482 1482
1502 1502 1502 1502 1502 1501 1501 1500 1500 1499 1498 1498 1497 1496 1495 1494 1493 1492 1491 1490 1489 1488 1487 1487 1487 1487 1486 1486 1486 1486 1486 1486 1485 1485 1483 1481 1481 1480 1480 1479 1478 1478 1478